SCP
2 2 2 2 2 3 3 4 5 5 5 5 5 5 4 4 3 3 3 3 2 3 3 3 3 3 3 3 3 3 3 4 4 3 3 2 1 1 1 1 1 1 1
1 1 1 1 2 2 3 3 4 4 4 4 4 4 4 3 3 3 3 3 2 2 2 3 3 3 3 3 3 3 3 3 3 3 2 2 1 1 1 1 1 1 1
1 1 1 1 1 2 2 2 3 3 3 3 3 3 3 3 2 2 3 3 2 2 2 2 2 2 3 3 3 3 3 3 3 2 2 1 1 1 1 1 1 1 1
1 1 1 1 1 1 2 2 3 4 4 3 3 3 3 2 2 2 2 2 2 1 1 2 2 2 2 3 2 3 3 2 2 2 2 1 1 1 1 1 1 1 1
1 1 1 1 1 1 1 2 4 4 4 3 3 2 2 2 2 2 1 1 1 1 1 1 2 2 2 2 2 2 2 2 2 2 1 1 1 1 1 1 1 1 1
1 1 1 1 1 2 1 2 3 4 4 3 2 2 2 1 1 1 1 1 1 1 1 1 1 1 1 1 1 2 2 2 2 1 1 1 2 2 1 1 1 1 1
1 1 1 1 2 2 1 1 2 3 2 2 2 2 1 1 1 1 1 0 0 1 1 1 1 1 1 1 1 1 1 1 1 2 2 2 2 2 2 2 1 1 1
0 0 1 1 1 1 1 1 1 1 1 1 1 1 1 1 1 1 0 0 0 1 1 1 1 1 1 1 1 1 1 1 1 1 2 2 2 2 2 2 2 1 1
0 0 0 0 1 1 0 0 1 1 1 1 1 1 1 1 1 1 1 1 1 1 1 1 1 1 2 2 2 1 1 1 1 1 1 2 2 2 3 2 2 2 2
0 0 0 0 0 0 0 0 0 0 1 1 1 1 1 1 1 1 1 1 1 1 1 1 1 1 1 1 2 2 1 1 1 1 1 1 2 2 2 3 2 2 3
0 0 0 0 0 0 0 0 0 0 0 0 0 1 1 1 1 1 1 1 1 1 1 1 1 1 1 1 1 2 2 1 1 1 1 1 1 1 1 2 2 3 4
0 0 0 0 0 0 0 0 0 0 0 0 0 1 1 1 0 0 0 1 1 1 1 1 1 1 1 1 1 1 1 2 2 1 1 1 0 1 1 1 2 3 3
0 0 0 0 0 0 0 0 0 0 0 0 0 0 0 0 0 0 0 0 0 0 1 1 1 1 1 1 1 1 1 1 1 1 1 1 1 1 1 1 1 2 2
0 0 0 0 0 0 0 0 0 0 0 0 0 0 0 0 0 0 0 0 0 0 0 0 1 1 1 1 1 1 1 1 1 1 1 1 1 1 1 1 1 1 2
0 0 0 0 0 0 0 0 0 0 0 0 0 0 0 0 0 0 0 0 0 0 0 1 1 0 0 1 1 1 1 1 1 1 1 1 1 1 0 0 1 1 1
0 0 0 0 0 0 0 0 0 0 0 0 0 0 0 0 0 0 0 0 0 0 1 1 1 0 0 0 0 1 1 1 1 1 1 1 1 1 0 0 0 0 1
0 0 0 0 0 0 0 0 0 0 0 0 0 0 0 0 0 0 0 0 0 0 1 1 1 1 0 0 0 0 1 1 1 1 1 1 1 1 1 0 0 0 0
0 0 0 0 0 0 0 0 0 0 0 0 0 0 0 0 0 0 0 0 0 1 1 1 1 1 1 0 0 0 1 1 1 1 1 1 1 1 1 1 0 0 0
0 0 0 0 0 0 0 0 0 0 0 0 0 0 0 0 0 0 0 0 0 0 0 1 1 1 1 0 0 0 0 1 1 1 1 1 1 1 0 0 0 0 0
0 0 0 0 0 0 0 0 0 0 0 0 0 0 0 0 0 0 0 0 0 0 0 1 1 1 1 0 0 0 0 1 1 1 1 1 1 0 0 0 0 0 0
0 0 0 0 0 0 0 0 0 0 0 0 0 0 0 0 0 0 0 0 0 0 0 1 1 1 1 0 0 0 0 0 1 1 1 1 0 0 0 0 0 0 0
0 0 0 0 0 0 0 0 0 0 0 0 0 0 0 0 0 0 0 0 0 1 1 1 0 0 0 0 0 0 0 0 1 1 1 0 0 0 0 0 0 0 0
0 0 0 0 0 0 0 0 0 0 0 0 0 0 0 0 1 1 0 0 0 1 1 0 0 0 0 0 0 0 0 0 0 1 0 0 0 0 0 0 0 0 0
0 0 0 0 0 0 0 0 0 0 0 0 0 0 0 1 1 0 0 0 0 0 0 0 0 0 0 0 0 0 0 0 0 0 0 0 0 0 0 0 0 0 0
0 0 0 0 0 0 0 0 0 0 0 0 0 0 0 1 0 0 0 0 0 0 0 0 0 0 0 0 0 0 0 0 0 0 0 0 0 0 0 0 0 0 0
0 0 0 0 0 0 0 0 0 0 0 0 0 0 0 1 0 0 0 0 0 0 0 0 0 0 0 0 0 0 0 0 0 0 0 0 0 0 0 0 0 0 0
Wind_Speed
8 6 6 5 5 5 4 4 4 4 3 3 4 3 3 3 2 1 1 1 2 3 4 3 3 3 3 4 5 5 6 5 4 4 5 6 9 9 8 8 8 9 10
8 6 5 5 4 4 3 3 3 4 4 3 3 2 3 3 3 1 0 1 1 3 4 3 3 3 3 4 4 4 3 4 4 3 3 4 5 7 10 7 7 7 6
7 6 5 4 4 3 2 3 3 2 4 5 4 4 4 4 3 3 1 0 1 2 3 3 4 3 3 3 4 3 3 3 3 3 4 3 3 2 4 7 7 6 4
6 5 4 3 2 2 2 3 2 1 2 4 5 7 6 6 6 4 3 4 3 4 3 3 3 3 3 3 3 2 2 3 3 3 3 4 3 1 1 3 5 6 5
4 3 1 1 1 2 1 1 2 1 2 3 5 6 7 6 6 7 7 7 6 6 5 4 3 2 2 2 3 3 3 3 3 3 3 4 4 3 2 3 3 3 4
2 2 1 1 1 2 2 3 4 3 3 4 5 6 7 7 8 9 9 8 6 5 4 4 3 3 2 2 2 3 4 3 4 3 3 3 2 3 3 3 4 4 4
0 1 2 2 2 3 3 3 4 4 4 4 5 6 7 7 9 9 8 7 6 5 5 4 2 3 3 3 3 2 3 3 3 3 3 3 3 4 3 2 3 3 3
3 4 4 4 4 5 4 4 4 4 4 5 5 5 7 7 6 7 7 8 7 7 7 6 4 4 4 4 3 3 3 3 3 4 3 3 3 4 4 3 3 2 2
6 6 7 8 7 7 6 6 5 5 5 5 6 7 7 6 7 7 8 7 6 8 8 7 6 6 5 5 4 4 4 3 3 3 3 3 3 3 4 4 3 2 2
8 9 9 9 8 7 6 6 6 6 6 7 6 8 6 7 7 8 8 7 8 8 9 9 8 7 7 6 6 5 5 5 4 3 4 4 4 4 3 3 4 2 2
10 10 9 9 8 8 8 7 7 6 6 6 6 6 6 7 7 7 8 8 8 8 8 8 8 8 8 7 7 7 7 7 6 5 5 5 4 4 3 3 3 3 2
9 10 10 9 9 9 9 9 8 8 7 7 6 6 6 7 8 9 9 8 8 8 9 9 9 10 10 8 8 9 9 8 8 8 7 7 5 5 4 3 4 3 3
10 10 9 9 9 9 9 10 10 10 10 9 8 8 8 8 9 9 9 9 9 9 9 9 10 10 10 9 9 9 9 9 9 8 8 8 7 6 5 5 4 4 4
9 9 9 8 8 8 8 9 10 10 11 10 10 9 9 9 9 10 9 9 9 9 9 10 10 10 10 10 10 10 10 9 9 9 9 8 8 8 7 5 5 5 5
10 10 10 9 9 9 8 9 10 9 10 10 11 10 10 9 10 10 10 10 10 12 10 10 10 10 10 11 11 10 12 10 9 9 9 9 10 11 9 6 5 5 5
11 11 11 11 10 10 10 10 10 9 9 10 11 11 11 11 11 10 10 10 10 10 10 10 11 11 12 13 12 8 8 8 9 9 9 10 9 11 12 11 9 7 6
11 11 11 10 9 9 8 9 10 10 10 10 11 11 12 12 11 13 12 11 10 10 10 11 11 11 11 14 14 13 8 9 8 9 8 10 11 12 10 11 11 9 9
10 11 11 11 11 10 10 9 11 11 11 11 12 12 12 13 12 12 12 11 9 9 10 11 11 11 12 14 15 14 11 10 9 9 8 9 8 8 9 10 10 9 8
9 9 11 11 11 11 10 10 11 12 12 12 12 13 13 13 13 13 12 11 9 10 10 11 11 11 11 13 14 13 9 9 10 10 10 9 9 9 10 8 8 8 7
9 9 10 11 10 11 11 11 12 12 12 12 13 13 13 13 14 13 11 10 9 10 10 10 10 10 10 11 13 13 9 9 8 7 8 11 9 10 11 8 7 7 6
9 9 10 9 9 10 9 11 12 12 13 13 13 13 13 12 13 10 9 9 9 9 9 10 9 9 9 9 11 14 9 7 7 6 6 6 9 11 12 9 6 5 4
10 10 9 9 9 9 10 11 12 12 12 13 14 14 13 13 11 10 10 9 9 9 8 8 7 6 5 6 8 12 12 7 4 4 4 4 9 11 12 8 6 6 4
9 9 10 10 9 9 9 11 11 12 13 13 14 14 14 12 10 9 9 8 7 6 6 6 6 5 4 3 5 9 10 8 3 1 1 3 9 9 8 9 8 6 4
9 9 10 11 11 10 10 10 11 11 12 14 13 13 13 12 9 7 6 6 5 6 6 5 5 5 4 2 1 3 5 6 6 3 3 5 7 6 6 7 6 5 4
8 8 9 10 11 11 10 10 10 11 13 14 13 12 11 10 9 7 5 5 4 3 4 5 5 5 4 4 4 1 2 4 5 5 4 3 4 4 5 6 7 7 6
8 8 10 11 11 11 11 10 10 11 12 12 12 10 10 8 8 7 6 4 4 4 4 4 4 4 3 4 3 1 0 1 4 5 4 5 5 7 7 7 7 7 7
Wind_Direction
104 101 96 87 83 77 73 62 55 43 12 23 355 346 342 328 306 273 92 358 318 318 294 298 305 289 284 274 263 257 250 243 233 244 256 251 235 225 219 214 217 218 215
119 121 127 120 107 102 106 103 67 39 16 18 323 295 309 295 275 291 138 232 315 318 305 316 294 292 293 289 287 269 258 249 215 211 235 249 237 226 216 203 209 222 216
133 139 136 134 133 126 112 78 64 31 16 347 320 332 320 301 311 333 304 252 292 283 289 292 286 289 283 286 283 269 262 263 255 223 227 236 246 226 218 205 202 199 213
132 134 139 134 142 164 171 143 134 47 356 333 333 332 313 309 315 316 321 325 302 271 253 254 269 285 287 285 286 272 260 259 267 265 249 253 281 256 257 217 197 183 191
116 107 82 97 311 298 305 170 144 101 358 341 320 314 311 318 319 321 312 302 285 260 240 230 226 252 274 290 294 291 274 265 255 258 269 268 271 253 223 222 200 183 181
137 146 232 235 278 304 332 5 48 33 9 341 325 316 313 312 307 300 292 287 278 267 247 225 207 218 242 267 279 284 279 271 260 248 260 264 258 264 251 225 203 193 194
263 292 303 326 332 330 356 7 15 4 351 333 319 316 312 306 292 286 293 305 308 308 305 298 247 236 231 239 252 263 278 276 261 248 249 263 272 275 272 263 249 211 189
20 354 347 359 352 347 356 356 354 337 322 311 306 307 298 291 291 307 320 309 298 294 292 296 285 263 243 243 234 245 251 258 255 259 256 264 273 276 284 277 271 260 205
355 347 356 352 346 354 357 350 339 329 323 316 306 287 280 299 313 311 297 289 290 296 305 318 304 286 266 249 237 238 244 246 242 250 254 254 265 273 279 283 278 244 230
353 359 355 345 351 348 346 344 340 333 324 312 304 308 322 313 298 295 294 293 289 285 282 279 279 275 266 252 236 232 230 229 232 229 242 252 258 266 273 280 285 279 252
355 350 346 349 347 342 340 341 336 328 320 313 308 306 301 299 298 293 289 289 291 292 290 286 282 279 273 263 248 237 230 225 227 227 223 227 237 250 265 268 273 277 275
352 348 346 347 342 337 336 334 330 321 317 316 311 305 301 299 297 297 295 294 292 289 287 283 280 276 273 265 255 246 240 225 222 220 219 220 222 225 239 248 250 256 253
353 347 347 344 338 339 335 328 323 321 319 314 309 308 305 303 298 296 293 291 288 285 282 279 276 274 272 270 266 258 249 236 228 219 216 213 209 216 217 226 233 239 241
352 347 344 339 339 332 330 326 322 320 316 316 313 307 303 301 299 296 294 291 289 286 282 278 274 271 268 266 263 261 254 245 236 229 221 213 207 208 205 214 219 221 227
346 344 338 334 331 329 326 321 318 316 316 313 307 306 304 300 296 293 291 288 286 285 283 283 279 274 269 260 252 248 253 247 239 233 228 221 211 208 202 205 200 204 212
342 337 333 331 328 325 322 322 318 319 315 309 308 306 301 297 295 293 289 287 285 285 282 279 278 274 271 271 268 260 260 259 247 237 229 230 216 208 202 200 192 190 200
336 335 333 327 323 322 326 323 321 318 314 310 307 304 302 300 298 298 297 294 292 290 285 280 275 270 265 265 264 259 255 256 250 240 230 233 226 200 196 198 197 200 205
340 337 328 324 324 329 327 325 321 319 316 313 310 309 305 304 302 299 295 292 290 288 285 280 276 271 266 257 248 245 245 251 245 236 226 226 240 219 195 192 198 203 203
341 330 324 323 326 326 327 325 319 318 316 315 314 312 309 307 304 301 298 295 292 289 285 280 274 270 266 256 245 233 242 240 240 234 225 217 220 220 202 195 197 199 203
334 328 326 325 326 328 328 320 317 318 318 318 315 312 308 305 302 299 298 297 293 289 288 285 280 273 266 257 240 222 234 236 234 229 226 218 215 206 200 199 198 200 200
332 333 331 328 328 326 323 318 319 322 323 318 313 309 306 302 297 297 298 298 296 293 290 289 285 277 269 261 237 218 225 229 225 225 219 211 193 192 199 203 201 195 189
336 337 332 329 327 326 326 322 323 325 322 317 314 311 307 304 306 305 301 300 299 298 295 295 295 286 274 260 235 214 216 229 228 224 221 196 178 185 189 196 185 163 174
336 334 331 326 327 330 330 325 326 326 322 318 315 312 310 305 304 304 304 305 304 306 305 305 306 304 296 262 224 209 208 210 223 224 178 164 168 175 190 204 183 170 193
332 333 329 328 328 329 329 327 327 326 321 318 316 314 312 310 311 309 305 307 310 315 316 319 321 320 323 323 238 195 193 190 201 201 147 143 155 175 201 187 189 201 213
329 330 329 327 326 329 327 329 331 328 323 319 317 316 313 312 313 310 308 306 308 307 306 320 327 332 336 348 344 307 198 189 188 171 160 164 165 190 207 196 190 201 206
329 329 329 327 326 326 327 330 333 330 323 319 319 317 315 317 317 317 316 284 266 262 258 275 298 315 334 331 337 3 105 143 154 163 175 193 198 199 205 202 194 199 202